Change the Weather History Date:

Sunday, November 24, 2013

  Actual Average Record
Temperature  
Mean Temperature 46 °F -  
Max Temperature 53 °F 66 °F 83 °F (1967)
Min Temperature 39 °F 48 °F 27 °F (1970)
Degree Days  
Heating Degree Days 19    
Moisture  
Dew Point 31 °F    
Average Humidity 58    
Maximum Humidity 76    
Minimum Humidity 38    
Precipitation  
Precipitation 0.00 in - - ()
Sea Level Pressure  
Sea Level Pressure 30.37 in    
Wind  
Wind Speed 11 mph (NNE)    
Max Wind Speed 17 mph    
Max Gust Speed 24 mph    
Visibility 10 miles    
Events      
Averages and records for this station are not official NWS values.
T = Trace of Precipitation, MM = Missing Value Source: NWS Daily Summary

Daily Weather History Graph

Daily Weather History Graph

Search for Another Location

Airport or City:

Trip Planner

Search our weather history database for the weather conditions in past years. The results will help you decide how hot, cold, wet, or windy it might be!

Date:

Astronomy

Nov. 24, 2013 Rise Set
Actual Time 6:48 AM CST 5:15 PM CST
Civil Twilight 6:22 AM CST 5:41 PM CST
Nautical Twilight 5:53 AM CST 6:10 PM CST
Astronomical Twilight 5:24 AM CST 6:39 PM CST
Moon 11:28 PM CST (11/24) 11:48 AM CST (11/24)
Length of Visible Light 11h 19m
Length of Day
10h 27m
Waning Gibbous, 60% of the Moon is Illuminated
Nov 24
Waning Gibbous
Nov 25
Last Quarter
Dec 2
New
Dec 9
First Quarter
Dec 17
Full

Hourly Weather History & Observations

Time (CST) Temp. Windchill Dew Point Humidity Pressure Visibility Wind Dir Wind Speed Gust Speed Precip Events Conditions
12:15 AM 43.9 °F 38.8 °F 36.7 °F 76% 30.39 in 10.0 mi North 9.2 mph - N/A   Clear
12:35 AM 43.7 °F 36.9 °F 36.5 °F 76% 30.38 in 10.0 mi NNE 13.8 mph 18.4 mph N/A   Clear
12:55 AM 43.7 °F 37.7 °F 35.8 °F 74% 30.37 in 10.0 mi NNE 11.5 mph 19.6 mph N/A   Clear
1:15 AM 43.3 °F 37.7 °F 34.9 °F 72% 30.37 in 10.0 mi North 10.4 mph 18.4 mph N/A   Clear
1:35 AM 43.0 °F 36.0 °F 34.2 °F 71% 30.37 in 10.0 mi NNE 13.8 mph 19.6 mph N/A   Clear
1:55 AM 42.8 °F 35.4 °F 33.4 °F 70% 30.36 in 10.0 mi NNE 15.0 mph 20.7 mph N/A   Clear
2:15 AM 42.4 °F 36.1 °F 33.1 °F 69% 30.36 in 10.0 mi North 11.5 mph - N/A   Clear
2:35 AM 42.1 °F 36.1 °F 32.7 °F 69% 30.37 in 10.0 mi NNE 10.4 mph 18.4 mph N/A   Clear
2:55 AM 41.9 °F 35.4 °F 32.5 °F 69% 30.37 in 10.0 mi NNE 11.5 mph 18.4 mph N/A   Clear
3:15 AM 41.9 °F 35.9 °F 32.2 °F 68% 30.38 in 10.0 mi NNE 10.4 mph 17.3 mph N/A   Clear
3:35 AM 41.4 °F 36.8 °F 32.2 °F 70% 30.38 in 10.0 mi North 6.9 mph 18.4 mph N/A   Clear
3:55 AM 41.4 °F 35.7 °F 32.0 °F 69% 30.37 in 10.0 mi NNE 9.2 mph 17.3 mph N/A   Clear
4:15 AM 41.2 °F 35.0 °F 32.0 °F 70% 30.38 in 10.0 mi NNE 10.4 mph 16.1 mph N/A   Clear
4:35 AM 41.0 °F 34.7 °F 31.8 °F 70% 30.37 in 10.0 mi NNE 10.4 mph 18.4 mph N/A   Clear
4:55 AM 40.6 °F 33.8 °F 31.6 °F 70% 30.37 in 10.0 mi NNE 11.5 mph 17.3 mph N/A   Clear
5:15 AM 40.5 °F 35.1 °F 31.3 °F 70% 30.38 in 10.0 mi NNE 8.1 mph 17.3 mph N/A   Clear
5:35 AM 40.3 °F 33.9 °F 31.1 °F 70% 30.38 in 10.0 mi North 10.4 mph - N/A   Clear
5:55 AM 40.1 °F 33.6 °F 31.1 °F 70% 30.39 in 10.0 mi North 10.4 mph 17.3 mph N/A   Clear
6:15 AM 39.7 °F 34.3 °F 30.9 °F 71% 30.41 in 10.0 mi North 8.1 mph - N/A   Clear
6:35 AM 39.6 °F 34.0 °F 30.4 °F 70% 30.41 in 10.0 mi North 8.1 mph 17.3 mph N/A   Clear
6:55 AM 39.4 °F 33.2 °F 30.2 °F 70% 30.42 in 10.0 mi North 9.2 mph - N/A   Clear
7:15 AM 39.4 °F 32.3 °F 29.8 °F 69% 30.43 in 10.0 mi North 11.5 mph 16.1 mph N/A   Clear
7:35 AM 40.1 °F 33.6 °F 29.8 °F 67% 30.43 in 10.0 mi NNE 10.4 mph 16.1 mph N/A   Clear
7:55 AM 40.1 °F 32.4 °F 29.8 °F 67% 30.43 in 10.0 mi NNE 13.8 mph 19.6 mph N/A   Clear
8:15 AM 41.0 °F 34.7 °F 29.7 °F 64% 30.43 in 10.0 mi NNE 10.4 mph 19.6 mph N/A   Clear
8:35 AM 42.1 °F 34.9 °F 29.3 °F 61% 30.44 in 10.0 mi NNE 13.8 mph 21.9 mph N/A   Clear
8:55 AM 42.8 °F 35.4 °F 28.6 °F 57% 30.43 in 10.0 mi NNE 15.0 mph 20.7 mph N/A   Clear
9:15 AM 44.1 °F 36.8 °F 28.9 °F 55% 30.43 in 10.0 mi NNE 16.1 mph 24.2 mph N/A   Clear
9:35 AM 44.8 °F 39.0 °F 29.5 °F 55% 30.43 in 10.0 mi North 11.5 mph 24.2 mph N/A   Clear
9:55 AM 44.2 °F 37.6 °F 28.6 °F 54% 30.42 in 10.0 mi NNE 13.8 mph 21.9 mph N/A   Scattered Clouds
10:15 AM 45.0 °F 37.6 °F 28.0 °F 52% 30.41 in 10.0 mi NNE 17.3 mph 21.9 mph N/A   Mostly Cloudy
10:35 AM 45.5 °F 38.6 °F 27.9 °F 50% 30.42 in 10.0 mi NNE 16.1 mph 21.9 mph N/A   Overcast
10:55 AM 45.7 °F 40.6 °F 26.6 °F 47% 30.42 in 10.0 mi NNE 10.4 mph 21.9 mph N/A   Overcast
11:15 AM 46.9 °F - 27.1 °F 46% 30.40 in 10.0 mi NNE 12.7 mph 18.4 mph N/A   Overcast
11:35 AM 49.3 °F - 27.1 °F 42% 30.38 in 10.0 mi NNE 15.0 mph 21.9 mph N/A   Scattered Clouds
11:55 AM 51.3 °F - 27.9 °F 40% 30.37 in 10.0 mi NNE 10.4 mph 18.4 mph N/A   Mostly Cloudy
12:15 PM 50.4 °F - 27.9 °F 42% 30.36 in 10.0 mi North 11.5 mph 18.4 mph N/A   Overcast
12:35 PM 50.0 °F - 27.0 °F 41% 30.34 in 10.0 mi NNE 13.8 mph 20.7 mph N/A   Overcast
12:55 PM 50.0 °F - 26.8 °F 41% 30.34 in 10.0 mi NNE 11.5 mph 20.7 mph N/A   Overcast
1:15 PM 50.2 °F - 27.1 °F 41% 30.33 in 10.0 mi North 11.5 mph 19.6 mph N/A   Overcast
1:35 PM 51.6 °F - 27.5 °F 39% 30.32 in 10.0 mi NNE 10.4 mph - N/A   Overcast
1:55 PM 52.0 °F - 27.5 °F 39% 30.33 in 10.0 mi NNE 9.2 mph - N/A   Scattered Clouds
2:15 PM 53.2 °F - 28.6 °F 39% 30.32 in 10.0 mi North 11.5 mph 17.3 mph N/A   Clear
2:35 PM 52.7 °F - 27.5 °F 38% 30.31 in 10.0 mi NNE 10.4 mph 16.1 mph N/A   Clear
2:55 PM 51.8 °F - 27.1 °F 39% 30.31 in 10.0 mi NNE 8.1 mph 16.1 mph N/A   Clear
3:15 PM 52.3 °F - 29.5 °F 42% 30.32 in 10.0 mi North 5.8 mph - N/A   Clear
3:35 PM 52.0 °F - 29.3 °F 42% 30.33 in 10.0 mi North 6.9 mph - N/A   Clear
3:55 PM 51.6 °F - 28.2 °F 41% 30.34 in 10.0 mi NNE 6.9 mph - N/A   Mostly Cloudy
4:15 PM 51.4 °F - 29.3 °F 43% 30.33 in 10.0 mi NNE 9.2 mph - N/A   Mostly Cloudy
4:35 PM 49.3 °F - 30.2 °F 48% 30.34 in 10.0 mi North 6.9 mph - N/A   Scattered Clouds
4:55 PM 48.9 °F - 30.9 °F 50% 30.35 in 10.0 mi NNW 6.9 mph - N/A   Overcast
5:15 PM 47.3 °F - 31.1 °F 53% 30.34 in 10.0 mi North 6.9 mph - N/A   Mostly Cloudy
5:35 PM 46.9 °F - 31.3 °F 55% 30.35 in 10.0 mi North 5.8 mph - N/A   Scattered Clouds
5:55 PM 46.2 °F 43.3 °F 32.7 °F 59% 30.35 in 10.0 mi North 5.8 mph - N/A   Mostly Cloudy
6:15 PM 45.9 °F 42.9 °F 32.4 °F 59% 30.35 in 10.0 mi North 5.8 mph - N/A   Mostly Cloudy
6:35 PM 45.9 °F 43.6 °F 32.4 °F 59% 30.35 in 10.0 mi North 4.6 mph - N/A   Overcast
6:55 PM 46.4 °F 41.1 °F 31.1 °F 55% 30.35 in 10.0 mi NNE 11.5 mph 17.3 mph N/A   Overcast
7:15 PM 46.0 °F 39.9 °F 30.6 °F 55% 30.34 in 10.0 mi NNE 13.8 mph 18.4 mph N/A   Overcast
7:35 PM 45.9 °F 41.7 °F 31.1 °F 56% 30.35 in 10.0 mi North 8.1 mph - N/A   Overcast
7:55 PM 45.5 °F 41.8 °F 31.8 °F 59% 30.36 in 10.0 mi North 6.9 mph - N/A   Mostly Cloudy
8:15 PM 45.1 °F 41.4 °F 31.8 °F 60% 30.37 in 10.0 mi North 6.9 mph - N/A   Mostly Cloudy
8:35 PM 44.6 °F 40.2 °F 32.0 °F 61% 30.36 in 10.0 mi North 8.1 mph - N/A   Light Drizzle
8:55 PM 43.7 °F 39.1 °F 32.9 °F 66% 30.36 in 10.0 mi NNE 8.1 mph - N/A   Light Drizzle
9:15 PM 43.9 °F 39.9 °F 32.5 °F 64% 30.36 in 10.0 mi NNE 6.9 mph - N/A   Overcast
9:35 PM 44.1 °F 37.7 °F 31.8 °F 62% 30.35 in 10.0 mi NNE 12.7 mph 17.3 mph N/A   Overcast
9:55 PM 44.1 °F 38.1 °F 31.5 °F 61% 30.35 in 10.0 mi NNE 11.5 mph 16.1 mph N/A   Overcast
10:15 PM 43.9 °F 38.3 °F 32.0 °F 63% 30.34 in 10.0 mi NNE 10.4 mph - N/A   Overcast
10:35 PM 43.7 °F 38.1 °F 32.0 °F 63% 30.34 in 10.0 mi NNE 10.4 mph - N/A   Overcast
10:55 PM 43.7 °F 38.1 °F 32.0 °F 63% 30.34 in 10.0 mi NE 10.4 mph - N/A   Overcast
11:15 PM 43.3 °F 37.7 °F 32.0 °F 64% 30.34 in 10.0 mi NNE 10.4 mph - N/A   Overcast
11:35 PM 43.3 °F 36.8 °F 31.3 °F 62% 30.33 in 10.0 mi NE 12.7 mph - N/A   Overcast
11:55 PM 43.2 °F 36.6 °F 31.1 °F 62% 30.32 in 10.0 mi NE 12.7 mph - N/A   Overcast